Regional Weather Roundup
Issued by NWS Cleveland, OH

Home | Current Version | Previous Version | Text Only | Print | Product List | Glossary On
Versions: 1 2 3 4 5 6 7 8 9 10 11 12 13 14 15 16 17 18 19 20 21 22 23 24 25 26 27 28 29 30 31 32 33 34 35 36 37 38 39 40 41 42 43 44 45 46 47 48 49 50
000
ASUS41 KCLE 222210
RWRCLE
OHIO REGIONAL WEATHER ROUNDUP
NATIONAL WEATHER SERVICE WILMINGTON, OH
500 PM EST MON DEC 22 2014

NOTE: "FAIR" INDICATES FEW OR NO CLOUDS BELOW 12,000 FEET WITH NO
SIGNIFICANT WEATHER AND/OR OBSTRUCTIONS TO VISIBILITY.

OHZ001>008-015>018-024>027-034-035-043-044-222300-
   NORTHWEST OHIO

CITY           SKY/WX    TMP DP  RH WIND       PRES   REMARKS
DEFIANCE       CLOUDY    38  32  79 E9        29.88F
FINDLAY        CLOUDY    40  33  76 E8        29.87F
TOLEDO EXPRESS CLOUDY    35  29  78 E8        29.91S HAZE    WCI  29
TOLEDO METCALF CLOUDY    36  29  75 NE10      29.92F HAZE
LIMA           CLOUDY    41  33  73 E8        29.84F HAZE
$$

OHZ009>014-019>023-028>033-038-089-222300-
   NORTHEAST OHIO

CITY           SKY/WX    TMP DP  RH WIND       PRES   REMARKS
CLE-HOPKINS    MOCLDY    41  31  67 SE8       29.99R
CLE-LAKEFRONT  PTCLDY    43  31  62 SE8       29.96F
CUY CO. ARPT   MOCLDY    41  32  70 SE10      29.97F
LORAIN-ELYRIA  PTCLDY    40  32  73 SE6       29.94F
ASHTABULA      PTCLDY    37  28  70 SE7       30.01S
AKRON-CANTON   CLOUDY    40  31  70 E9        29.96S
WOOSTER        PTCLDY    39  32  76 E7        29.93F
MANSFIELD      MOCLDY    40  33  76 E13       29.89F
YOUNGSTOWN     MOCLDY    36  29  75 E8        30.00R
$$

OHZ042-051>053-060>062-070>072-077>081-222300-
  SOUTHWEST OHIO

CITY           SKY/WX    TMP DP  RH WIND       PRES   REMARKS
CINC-COVINGTON CLOUDY    50  37  61 SE8       29.81S
CINC-LUNKEN    CLOUDY    49  38  65 SE5       29.83F
HAMILTON       CLOUDY    49  39  68 E5        29.83S
DAYTON         CLOUDY    45  36  70 E10       29.84S
WRIGHT-PAT AFB CLOUDY    45  36  72 E3        29.84F
DAYTON GENERAL CLOUDY    46  37  71 E8        29.82R
WILMINGTON     CLOUDY    44  36  73 E9        29.84S
$$

OHZ036-037-039>041-045>050-054>059-063>069-073>076-082>088-222300-
  CENTRAL AND SOUTHEAST OHIO

CITY           SKY/WX    TMP DP  RH WIND       PRES   REMARKS
COLUMBUS       CLOUDY    45  35  68 E9        29.87F
OSU AIRPORT    CLOUDY    45  35  68 E8        29.87F
BOLTON FIELD   CLOUDY    45  37  76 E7        29.87F
RICKENBACK AFB CLOUDY    45  36  69 E5        29.86F
NEWARK         CLOUDY    44  34  67 NE5       29.89F
MARION         CLOUDY    42  33  70 SE10      29.89S
LANCASTER      CLOUDY    61  36  39 E9        29.87F
ZANESVILLE     CLOUDY    46  33  60 E5        29.92F
NEW PHILLY     MOCLDY    45  32  60 VRB3      29.96F
$$


USA.gov is the U.S. government's official web portal to all federal, state and local government web resources and services.